COSMOS 2180

Satellite information

Favourite Embed

Satellite Type and Status

PAYLOADIN ORBIT

Key statistics

Satellite COSMOS 2180 at a glance.

Uptime

12354

Days in orbit

Revolutions

≈ 13.7

Per day

Orbit

LEO

Low Earth Orbit

Inclination

82.9

Latest

Satellite identification and parameters

Extended collection of information and parameters for COSMOS 2180.

Object identification

Identified? True

Debris? False

Object name: COSMOS 2180

International designator: 1992-008A

Object number (NORAD): 21875

Object ID (CCSDS): 21875

Country: COMMONWEALTH OF INDEPENDENT STATES (CIS)

Current information (Y/N): Y

RCS size: LARGE

Orbital parameters

Period: 104.807 minutes

Inclination: 82.9271 deg

SMA: 7363.568 km

Apoapsis: 1013.904 km

Periapsis: 956.963 km

RAAN: 0.0147 deg

Eccentricy: 0.00386643

Argument of periapsis: 130.2659 deg

Mean anomaly: 246.3642 deg

Mean motion: 13.73947926 rev/day

Mean motion (dot): 0.00000077 rev/day2

B* drag term: 0.000065083424 1/REarth

Two-line elements (TLE)

Creation date: Dec. 12, 2025, 10:14 a.m.

Reference frame: TEME

Reference center: EARTH

Epoch: Dec. 12, 2025, 7:36 a.m. UTC

TLE line 0: 0 COSMOS 2180

TLE line 1: 1 21875U 92008A 25346.31731543 .00000077 00000-0 65083-4 0 9999

TLE line 2: 2 21875 82.9271 0.0147 0038664 130.2659 246.3642 13.73947926695164

Live tracking on map

Real-time ground track for satellite COSMOS 2180.

In-orbit conjunctions

A list of the most updated potential collisions computed for object COSMOS 2180.

Target Orbit TCA Probability of collision Miss distance Type
DELTA 1 DEB SSO 2025-10-08 20:27:38 0.0002439921 486.0 (m) DEBRIS
FENGYUN 1C DEB SSO 2025-07-09 02:03:33 0.0001724776 574.0 (m) DEBRIS
FENGYUN 1C DEB SSO 2025-05-25 21:06:21 0.0001615109 136.0 (m) DEBRIS

Associated space launch

Navigation satellite providing location information for the Tsiklon-B navigation system

COSMOS 2180 was lifted into orbit during the mission ‘Kosmos-3M | Parus 75’, on board a Kosmos-3M space rocket.

The launch took place on Feb. 17, 1992, 10:05 p.m. from 133/3 (133L).

For more information about the launch, click the button.

Launch to space Kosmos-3M | Parus 75
Kosmos-3M | Parus 75

Agency: N/A

Status: Launch Successful

Launch date: Feb. 17, 1992, 10:05 p.m. UTC

Rocket: Kosmos-3M

Launch pad: 133/3 (133L)

Location: Plesetsk Cosmodrome, Russian Federation

...

Latest news about this satellite

There are no fresh news available about this satellite. Check back as we update our databases every day.


Newsletter sign-up

Weekly statistics, charts and insights to help you stay on top of the space industry.